Wind_Speed
23 23 22 22 22 22 22 21 21 21 18 16 15 14 13 14 13 14 15 15 16 17 17 17 16 17 17 16 16 16 17 17 18 17 17 18 18 19 20 21 22 23 24 26 27 28 27 28 28 29 29 29 31 32 30 28 27 26 27 30 29 27 30 29 26 24 21 21 22 20 19 16 14 14 15 15 15 15 14 12 12 11 10 9 8
24 24 23 23 24 24 22 21 22 22 19 17 16 15 15 14 14 15 15 15 16 17 18 17 17 18 17 17 17 17 17 17 18 18 17 18 18 19 19 20 21 22 23 25 27 27 27 27 28 30 32 30 31 33 32 30 28 26 27 31 30 30 31 28 26 24 22 22 22 22 20 17 16 17 17 16 16 17 14 12 12 12 11 10 9
25 25 24 24 24 23 22 21 21 21 19 18 17 16 16 15 15 15 15 16 16 17 17 18 18 19 19 19 18 18 18 18 18 18 18 18 18 19 20 21 21 21 22 23 25 26 27 28 29 31 32 31 30 32 33 32 30 28 28 31 30 30 29 27 26 25 24 22 20 22 21 18 19 20 19 17 17 16 14 13 14 12 12 11 10
25 25 24 23 22 22 21 19 19 19 20 19 17 17 17 17 16 16 15 16 17 17 17 18 19 20 20 20 20 19 19 19 19 18 18 18 19 19 19 20 21 20 21 22 24 25 27 28 29 30 31 31 31 31 32 34 33 31 30 31 31 30 28 27 27 26 25 23 21 23 21 19 21 22 19 17 17 15 14 14 15 13 12 11 11
25 25 23 21 20 20 18 17 17 18 19 18 16 17 18 17 17 16 16 16 17 17 17 18 19 20 21 21 21 21 20 20 20 19 18 18 19 19 19 19 20 20 21 22 23 24 26 27 29 30 31 33 32 31 33 34 36 34 32 32 33 32 30 28 27 26 25 25 24 24 22 21 22 21 19 18 18 17 16 16 15 14 13 12 12
25 24 21 19 18 17 16 16 18 18 17 16 16 17 18 18 17 17 16 17 18 17 17 18 19 20 21 21 22 23 22 21 20 20 19 18 19 19 20 19 19 20 20 21 22 23 24 26 29 31 32 33 34 34 34 35 36 36 35 34 35 34 32 30 29 27 26 26 25 25 23 21 20 20 19 19 18 18 18 17 16 15 14 14 13
25 23 19 16 15 16 16 16 18 18 18 17 17 17 18 18 18 17 16 16 17 17 17 18 18 19 20 21 22 23 23 22 21 20 20 19 19 19 20 20 20 20 20 21 21 21 23 25 28 31 32 33 35 35 35 35 36 37 37 35 36 36 34 31 30 29 27 26 26 25 23 21 20 20 20 19 18 18 19 18 17 17 16 15 15
25 21 17 15 14 14 15 16 17 18 18 19 19 19 19 19 18 17 16 16 17 17 17 18 18 18 18 19 21 23 23 23 21 21 21 21 20 20 20 20 20 20 21 21 21 20 21 24 27 29 31 32 34 35 35 35 36 37 37 37 37 38 36 33 32 30 28 27 27 26 24 22 21 20 19 18 18 18 19 20 19 18 17 16 15
23 18 16 15 13 12 13 15 16 17 18 20 21 20 19 18 17 17 16 16 17 17 17 17 18 18 18 19 20 22 23 22 21 20 21 22 21 21 20 19 19 19 20 21 21 20 20 23 26 28 29 31 33 35 35 35 35 36 38 38 38 39 37 35 33 31 29 29 28 27 26 24 22 20 19 19 18 18 19 20 20 19 19 18 16
21 17 16 14 12 13 15 16 17 18 20 21 21 20 18 16 15 17 17 16 17 17 17 17 18 19 19 19 19 20 21 20 20 20 21 22 21 21 20 19 18 18 19 20 20 20 20 22 25 27 28 31 33 35 34 35 35 36 38 39 40 41 39 37 35 33 31 30 29 28 27 25 23 22 21 20 19 18 19 20 20 20 19 19 18
20 16 16 14 13 15 17 17 18 19 20 20 18 17 16 15 15 17 17 17 17 17 17 17 18 19 20 19 19 19 19 19 19 20 21 21 21 22 21 20 20 19 20 21 21 21 20 21 24 27 28 30 34 35 34 35 36 36 38 40 41 42 41 40 38 35 33 32 30 29 28 26 25 24 22 21 20 19 18 19 21 20 19 20 20
18 15 15 14 14 16 18 19 19 18 18 17 16 14 14 15 15 16 16 17 18 17 17 17 18 20 20 20 19 19 19 19 21 21 22 21 21 22 22 22 22 22 22 22 22 22 21 21 24 28 29 30 31 33 34 37 39 38 38 40 42 43 43 42 40 37 35 33 31 30 30 29 27 25 23 22 21 20 19 19 20 21 21 21 20
17 14 15 14 15 16 17 19 19 17 16 15 14 13 13 13 14 16 17 18 18 17 17 17 18 20 21 21 20 21 21 22 23 23 22 21 21 22 23 23 23 23 23 23 23 22 21 21 23 26 29 30 31 33 35 38 40 39 38 40 42 43 43 43 41 38 37 35 32 30 31 31 29 26 25 24 23 21 20 20 21 22 22 22 21
16 14 14 14 15 16 18 19 18 16 15 15 14 13 12 12 13 15 17 18 18 18 17 17 19 20 21 22 23 23 24 24 25 24 23 23 22 22 22 23 24 24 24 23 23 22 21 21 23 25 27 29 32 34 35 36 38 38 37 40 42 43 44 44 42 40 39 37 34 32 32 33 31 28 27 26 25 23 23 22 22 22 23 23 22
17 14 14 14 15 17 19 19 18 17 15 15 15 14 12 12 14 16 18 18 19 18 18 18 19 21 21 22 23 25 26 26 26 26 25 24 24 24 23 23 23 24 24 24 23 23 22 22 23 25 25 27 31 35 35 35 37 38 39 40 41 42 44 44 44 42 39 38 36 34 33 34 33 31 30 29 28 27 25 24 23 23 23 23 23
18 14 12 14 15 18 19 19 19 18 16 15 16 16 15 14 15 17 18 18 19 19 19 19 20 21 21 22 23 24 26 26 26 27 26 26 25 24 24 23 22 23 24 24 24 24 23 23 23 23 23 25 30 34 35 35 35 36 38 39 39 40 42 44 44 43 41 39 38 36 34 35 35 35 34 32 31 29 28 26 26 26 25 24 23
18 16 12 11 14 17 19 20 19 19 18 16 16 17 17 17 17 18 19 19 20 21 21 21 22 22 22 22 23 24 25 25 25 26 26 26 25 24 23 23 22 22 23 23 24 24 23 23 23 22 22 23 27 32 35 36 35 35 37 38 38 39 41 44 45 44 43 41 40 39 36 36 37 37 36 35 34 32 30 28 28 28 28 26 24
18 18 15 12 12 15 17 18 17 17 17 18 18 19 20 20 20 20 20 21 22 23 23 24 24 24 23 23 24 24 24 24 24 24 25 25 24 23 23 23 22 21 21 22 23 23 23 23 23 22 21 22 25 29 33 36 35 35 36 37 38 39 40 43 46 46 45 44 42 41 38 38 37 37 38 37 36 34 31 30 30 30 29 28 26
18 18 17 15 14 14 16 16 16 16 16 17 18 19 21 22 23 24 24 23 24 25 26 26 26 26 25 25 26 25 24 23 23 23 23 23 23 23 22 22 22 21 21 21 22 22 23 23 24 23 21 21 23 27 32 36 36 33 33 34 36 38 38 40 45 47 47 46 44 43 40 39 38 37 37 38 37 35 33 32 32 32 30 29 28
16 16 17 16 16 16 17 18 18 18 19 19 20 20 21 22 23 25 26 26 26 27 28 28 28 28 27 27 27 27 26 25 23 22 20 21 22 22 21 22 22 22 22 22 22 22 22 23 24 24 22 21 22 26 32 36 36 33 32 32 32 36 37 38 42 46 47 47 46 45 44 42 40 38 37 38 37 36 35 33 33 33 32 31 31
16 16 16 16 17 18 18 19 19 20 21 22 23 23 24 24 24 24 25 26 27 29 30 30 30 30 30 29 28 29 29 28 25 23 21 19 20 20 20 21 22 22 23 23 23 22 22 22 24 24 24 22 22 26 31 35 37 33 30 30 32 36 37 37 40 44 47 49 48 47 47 46 44 41 39 37 37 36 35 34 35 35 34 33 33
15 16 16 17 17 18 19 20 21 22 23 23 24 25 26 26 26 25 24 24 24 26 29 30 30 31 31 30 30 30 30 30 28 27 25 22 20 19 19 20 21 22 23 23 22 21 21 21 22 23 24 23 23 25 28 33 39 38 31 29 32 37 37 34 36 40 44 47 49 50 50 49 48 46 42 39 37 37 37 36 36 37 37 36 36
16 16 17 17 18 19 20 21 22 23 24 24 24 25 26 27 27 27 26 25 24 24 26 28 28 29 30 29 30 31 31 31 30 29 28 26 22 20 20 20 21 22 22 23 22 21 20 20 21 22 24 24 24 25 25 28 34 39 37 34 32 34 34 34 35 38 42 44 47 51 52 51 50 49 47 43 41 40 40 40 38 38 39 39 39
16 17 17 18 19 20 21 22 22 23 25 25 25 25 26 27 27 27 27 26 25 24 24 25 26 27 28 27 27 28 30 30 30 30 30 29 26 23 22 21 21 21 22 23 23 21 20 20 20 21 23 25 25 25 25 25 29 34 38 39 34 29 28 32 34 37 42 43 44 49 52 51 51 50 49 47 44 43 43 42 40 39 40 41 41
17 17 18 19 20 21 22 23 24 25 26 26 26 26 26 26 25 25 25 24 24 22 22 22 23 25 26 25 24 25 26 28 29 30 30 30 29 26 24 22 21 21 22 23 23 22 21 20 20 21 22 24 25 24 24 25 26 30 36 40 40 34 29 29 30 35 41 42 43 47 51 51 50 49 48 47 46 45 45 44 43 42 42 42 41
18 18 18 19 20 22 23 24 25 26 26 27 26 25 23 21 21 20 20 20 20 20 19 19 20 22 23 23 23 22 23 25 27 29 29 29 29 28 26 24 23 22 22 22 23 22 22 21 21 21 21 23 24 24 23 23 24 28 32 35 39 40 37 31 28 31 38 43 44 46 49 50 50 49 48 46 45 45 45 45 44 43 42 42 41
18 17 17 18 19 21 22 23 24 25 26 26 24 20 17 16 16 17 17 16 17 17 16 15 16 18 19 20 20 20 21 22 24 26 28 28 29 28 27 25 24 23 23 23 23 23 22 22 21 21 21 22 23 24 23 22 22 25 30 30 31 34 38 36 30 29 35 42 44 46 47 48 49 49 49 47 46 45 44 42 40 40 40 42 43
17 16 17 17 18 19 20 21 23 24 25 23 19 15 14 14 14 15 15 15 15 14 13 12 12 13 13 15 16 17 18 20 21 23 25 26 27 27 26 25 25 25 24 23 23 24 23 23 22 21 21 22 23 24 23 22 21 22 27 30 27 27 31 33 31 29 33 39 43 45 46 46 47 49 50 49 48 48 46 44 42 41 41 42 44
18 18 18 17 18 19 19 20 22 24 23 19 15 13 13 13 14 15 14 14 14 13 11 10 9 9 9 10 12 14 16 17 19 20 22 23 24 25 25 25 25 25 24 23 23 24 24 23 22 22 21 21 23 24 23 22 21 21 25 28 26 23 25 29 30 29 31 36 41 43 45 45 47 49 50 50 51 51 50 49 48 46 44 44 45
20 20 19 18 18 18 18 19 21 22 20 16 13 12 13 14 15 14 14 14 13 12 11 10 9 8 8 9 10 12 13 15 16 18 19 20 22 23 23 23 23 24 24 23 23 23 24 24 23 22 22 22 22 23 24 23 21 21 24 27 27 25 24 26 28 28 29 34 38 41 43 44 44 46 48 49 51 52 52 51 50 48 47 47 45
20 19 19 18 18 17 17 18 20 21 18 14 12 12 13 14 14 13 13 13 13 13 13 12 11 9 8 9 10 11 12 13 15 16 17 18 19 20 20 20 20 21 22 22 23 23 23 23 23 22 22 22 22 23 24 23 21 20 23 27 30 30 27 26 27 27 28 31 35 39 42 43 43 44 45 47 49 51 52 52 52 50 49 46 43
18 17 16 17 17 17 17 18 19 20 17 13 11 11 12 13 12 12 13 14 14 14 14 14 13 12 10 10 9 10 11 12 13 14 14 15 16 17 17 18 18 19 20 21 21 22 22 23 23 22 22 22 22 23 23 24 23 21 22 25 31 33 32 29 28 27 27 29 32 36 40 42 43 43 44 44 45 47 50 52 52 50 48 44 41
16 16 15 15 16 16 17 17 18 19 17 12 10 10 11 11 11 11 13 14 15 15 15 15 14 14 13 12 11 11 11 12 12 13 13 14 15 15 16 17 17 18 19 20 20 21 21 22 22 22 22 22 23 23 23 24 24 22 22 23 28 33 34 33 32 29 27 27 30 33 37 39 41 43 43 43 42 44 47 50 50 49 47 45 42
15 15 14 14 15 16 16 17 18 19 17 13 10 10 10 10 11 12 13 14 15 15 15 15 15 14 14 13 13 13 13 14 14 15 15 16 16 17 18 18 19 18 19 19 20 20 20 21 22 22 22 22 22 23 23 24 25 24 22 22 24 29 34 36 35 33 30 28 27 29 33 37 40 42 43 42 42 43 47 49 49 47 47 46 43
14 14 14 15 16 15 15 16 18 19 17 13 10 10 10 10 10 12 13 14 15 15 15 15 15 15 14 13 13 13 13 15 16 16 17 17 18 19 19 19 20 20 20 19 20 20 20 20 21 22 22 22 22 23 23 24 25 25 24 21 21 25 30 34 36 36 34 32 29 27 29 33 38 42 44 44 44 45 47 50 51 50 50 49 47
16 15 15 15 15 14 14 14 16 18 16 13 11 10 10 10 10 11 12 14 14 14 15 15 15 15 14 13 12 11 11 13 14 16 17 18 18 19 19 19 19 19 19 19 19 19 20 20 21 22 22 22 22 22 23 24 25 25 24 21 20 21 25 29 34 36 36 34 32 29 28 30 35 40 43 45 46 47 49 52 54 54 54 53 51
18 17 16 14 13 13 13 13 16 17 16 13 11 10 10 10 10 11 12 13 14 15 15 16 15 14 14 13 12 11 10 10 11 12 13 15 16 16 17 17 17 16 17 17 17 18 18 19 20 21 22 22 22 22 22 23 25 25 23 20 19 19 20 23 28 33 35 35 34 33 31 30 32 36 40 44 46 48 50 52 55 56 57 57 55
19 19 17 15 14 13 13 13 15 16 15 13 12 11 10 10 10 11 12 13 15 15 15 15 15 14 13 13 12 11 10 9 8 8 8 9 10 11 13 13 12 12 12 13 13 14 16 17 18 19 20 21 20 21 21 22 24 24 21 19 18 18 18 19 22 27 32 34 35 35 34 33 32 32 35 38 43 46 48 50 52 54 56 58 58
19 19 18 17 16 14 13 13 14 15 15 14 12 11 10 10 10 11 12 13 15 15 14 14 13 13 12 12 12 11 9 8 8 6 4 4 4 6 7 7 7 7 8 9 9 10 12 14 16 17 18 19 19 19 20 21 23 22 20 17 16 16 16 17 19 22 27 31 34 35 36 36 34 32 30 31 34 39 42 44 45 47 50 53 56
18 18 18 18 17 15 14 13 14 14 15 14 13 11 11 10 10 11 12 13 14 13 13 12 12 11 11 11 11 11 9 8 8 7 4 2 1 2 3 3 4 5 6 6 6 7 9 11 13 14 14 15 16 17 19 20 21 21 19 16 15 15 15 15 16 18 22 25 29 32 34 35 35 33 30 29 29 31 35 38 40 42 43 45 48
17 17 17 17 17 16 14 14 13 14 14 14 13 12 11 10 10 10 11 11 13 13 12 11 11 9 9 9 10 10 10 9 8 8 6 4 2 1 1 1 2 3 4 4 4 5 6 8 9 9 9 11 13 15 17 19 19 19 17 16 14 14 14 14 15 16 18 21 23 26 28 30 32 32 32 31 30 29 30 31 34 37 39 41 42
15 16 17 17 16 16 16 14 13 13 13 14 13 12 11 10 10 10 11 11 12 13 12 11 10 8 7 7 8 8 9 9 9 8 7 6 5 3 2 1 1 2 2 3 3 4 5 5 5 5 6 9 11 14 15 16 17 16 15 14 13 13 13 13 14 14 15 17 20 21 23 25 27 28 29 30 31 30 29 28 29 31 35 38 41
15 16 16 16 16 16 16 15 13 13 13 13 12 11 11 10 10 10 10 11 12 12 12 11 9 7 6 6 6 7 7 7 8 9 9 7 5 4 3 3 2 2 2 1 2 2 2 2 2 3 5 7 10 12 13 13 14 13 13 12 12 11 11 12 12 13 13 15 17 18 20 22 23 25 26 27 29 29 29 29 27 27 28 31 35
14 15 16 15 15 15 15 15 14 13 13 13 12 11 11 11 10 10 10 11 12 13 12 11 10 7 5 4 4 5 6 6 7 8 9 8 6 5 4 3 3 2 2 2 2 2 1 1 2 3 4 5 7 9 10 11 11 11 11 11 10 10 10 11 11 11 12 13 14 16 18 19 20 22 23 25 26 27 27 27 27 27 26 26 27
14 15 16 15 14 14 15 15 14 13 12 12 12 11 11 11 11 11 11 11 11 12 12 12 11 9 7 5 3 3 4 5 6 7 8 8 8 7 5 4 3 3 2 2 3 2 2 1 1 2 3 4 5 6 7 8 9 9 9 9 9 9 9 10 10 10 11 11 12 13 15 16 17 18 19 21 22 23 24 24 25 25 25 25 25
15 15 16 15 14 14 14 15 14 13 12 12 12 12 12 11 12 12 12 11 11 11 12 12 11 10 9 7 5 4 3 4 5 5 6 6 7 7 7 6 5 4 3 3 3 2 2 1 0 1 2 2 3 3 4 5 5 6 6 6 6 7 8 8 9 10 10 11 11 11 12 13 13 14 15 16 17 18 18 19 20 20 21 22 23
16 16 16 16 14 14 14 15 14 14 13 12 12 13 12 12 12 12 12 12 12 12 12 12 11 11 10 9 7 6 4 3 3 3 4 4 5 5 6 6 6 6 6 5 4 4 3 2 1 1 0 1 1 1 2 2 3 3 4 4 5 5 5 6 7 8 9 10 10 11 11 11 12 12 12 13 14 15 15 16 17 17 18 19 20
20 18 17 17 15 14 14 15 15 15 14 13 13 13 13 12 11 11 11 12 12 12 12 11 11 10 10 10 9 8 6 4 3 3 3 3 3 4 4 5 5 6 6 7 7 7 6 5 5 4 3 2 1 0 1 1 2 2 3 3 4 4 5 5 6 7 8 8 9 10 11 11 11 12 12 13 13 14 14 15 16 17 18 18 19
23 22 20 18 16 14 14 15 15 15 15 14 13 14 14 13 11 11 11 11 12 12 11 11 11 10 10 10 9 8 7 6 4 3 3 3 3 3 3 3 4 4 4 5 6 6 6 6 6 6 5 5 4 3 2 1 0 1 2 2 3 4 4 5 6 7 7 8 9 10 10 11 11 12 12 13 13 14 14 15 16 16 17 18 19
22 22 22 20 18 15 14 14 15 15 15 15 14 14 14 13 11 10 10 11 11 11 11 11 11 10 10 9 9 9 8 7 6 5 4 3 3 3 3 3 2 2 3 3 4 4 4 4 4 4 4 4 4 3 3 2 1 0 0 1 2 2 3 3 4 5 6 7 8 9 9 10 11 11 12 12 13 13 14 15 15 16 17 17 18
20 21 21 20 19 17 15 14 15 15 15 15 15 14 14 13 12 11 10 11 12 11 11 11 11 11 10 9 9 9 8 7 7 6 5 4 3 3 3 3 3 2 2 1 1 1 2 2 2 2 2 2 2 2 2 2 2 2 2 3 3 3 4 4 5 5 6 6 7 8 9 10 10 11 12 12 13 14 15 15 16 17 17 18 19
Wind_Direction
303 304 301 299 300 305 302 292 291 297 302 304 299 292 282 272 269 262 252 248 247 251 254 253 254 254 254 254 254 254 253 251 250 249 249 251 251 251 247 244 241 239 237 236 236 237 236 233 229 228 228 225 224 224 225 225 223 227 222 207 199 201 210 215 212 210 214 215 214 215 218 217 208 198 203 209 202 189 184 197 205 193 182 175 170
306 304 304 303 300 300 299 292 288 289 294 300 295 286 278 267 261 259 255 252 250 249 253 256 257 257 256 255 254 252 252 252 252 252 251 251 251 250 248 246 243 240 240 239 239 239 237 234 231 231 230 226 224 225 225 223 222 223 214 201 197 199 205 213 216 215 214 215 216 217 218 216 206 197 199 206 204 190 176 191 211 199 185 178 173
309 308 306 304 303 303 302 295 288 285 289 295 289 279 273 264 258 257 256 255 252 251 253 255 257 258 257 257 255 252 251 250 252 253 253 253 251 249 246 245 245 243 242 241 242 241 239 235 232 233 233 228 225 226 226 223 221 219 212 204 201 200 203 210 217 218 217 218 218 219 217 209 201 199 200 203 204 193 174 187 212 207 192 183 178
311 311 309 306 306 307 305 298 287 284 290 293 284 273 268 262 255 254 254 253 253 253 254 255 256 256 257 256 256 254 251 250 250 251 253 253 253 251 247 245 246 245 244 245 245 244 241 237 233 233 233 229 227 228 229 225 220 218 213 209 205 204 205 210 215 218 219 218 217 220 219 206 202 206 203 200 202 195 180 189 207 207 198 190 186
313 314 311 307 307 308 305 295 286 287 292 292 282 270 265 261 255 252 251 251 253 254 255 256 255 255 254 254 255 254 253 251 250 250 251 252 253 253 250 248 247 247 246 247 248 248 244 239 234 232 230 228 226 227 231 228 222 219 216 212 210 209 210 211 215 218 217 216 217 221 217 208 208 209 204 200 200 196 188 192 203 206 200 193 193
315 314 311 308 307 305 300 292 288 286 285 287 283 273 265 260 254 251 249 249 253 257 258 259 256 254 252 251 251 252 252 251 251 251 251 250 252 252 252 252 250 249 249 250 251 252 248 241 235 233 230 228 226 225 229 230 224 220 218 217 215 214 213 214 216 218 218 215 216 219 213 210 213 208 205 205 203 200 194 192 199 204 200 195 197
313 311 307 306 304 302 298 292 285 279 276 282 284 277 268 261 253 250 248 248 253 258 259 259 257 254 251 249 248 249 250 250 250 251 251 251 252 253 253 253 253 251 251 252 254 254 250 242 235 233 231 230 229 227 227 228 225 222 220 219 218 218 217 215 215 218 219 214 215 219 215 215 217 210 208 210 207 204 199 195 196 199 199 197 198
312 308 302 300 300 301 297 286 277 273 276 283 284 277 269 262 254 250 247 247 253 258 260 260 258 255 253 251 248 248 249 250 250 250 250 251 252 253 253 252 252 251 251 252 253 255 251 242 235 232 231 231 231 228 228 227 225 224 223 220 220 221 220 217 216 217 219 215 215 221 220 220 219 214 213 214 211 207 203 200 196 197 199 199 199
313 307 298 297 298 296 289 279 275 275 280 284 281 276 270 265 257 249 245 247 253 259 260 260 259 259 259 256 253 250 250 250 250 250 250 250 251 252 252 251 250 249 249 250 251 253 250 242 235 231 230 231 230 228 227 229 228 225 225 223 220 221 220 219 217 218 220 218 217 222 224 223 220 217 217 219 218 213 210 208 201 198 202 204 206
316 306 299 298 291 284 282 280 279 280 282 284 283 279 276 272 259 247 243 246 253 259 260 260 261 263 263 261 257 253 253 253 253 254 253 250 249 251 251 249 248 248 249 250 250 249 248 244 236 231 230 231 232 230 226 227 229 227 226 224 221 219 218 218 217 216 219 220 220 224 226 226 223 219 217 220 223 221 219 218 211 204 205 208 211
317 305 300 297 284 281 286 288 287 285 283 285 287 285 282 277 261 245 242 246 253 257 259 260 262 264 264 263 260 257 256 258 259 258 256 253 251 251 250 249 248 250 251 251 250 248 247 245 238 232 233 231 231 232 228 225 225 225 225 224 222 219 217 218 217 216 220 222 225 226 225 225 226 222 216 216 222 225 223 225 222 214 211 211 213
319 304 300 298 287 286 291 293 293 292 288 286 287 284 281 277 263 248 242 245 252 255 258 261 263 264 264 264 263 261 261 262 263 262 260 256 254 252 250 250 251 254 255 251 248 247 248 247 240 234 235 233 229 229 228 226 224 223 223 222 222 220 218 218 217 218 222 224 226 227 224 224 226 226 222 217 220 224 223 225 226 222 217 215 215
322 305 300 300 292 289 292 295 298 300 295 291 286 280 277 274 262 251 246 247 250 254 257 261 263 263 263 264 263 263 263 264 264 263 261 259 257 254 252 251 252 254 254 250 245 244 247 248 242 236 234 233 230 226 225 226 226 226 224 222 222 221 220 219 219 221 222 223 226 227 224 223 225 227 227 223 222 224 223 222 225 226 223 219 216
322 309 300 300 295 290 290 292 300 306 304 297 288 279 275 271 258 250 249 248 250 252 255 259 262 262 261 262 262 262 263 263 263 262 262 261 258 256 255 253 252 251 249 247 244 242 244 246 243 240 235 230 229 228 228 226 226 227 226 223 223 223 221 218 219 222 223 223 225 227 225 224 224 225 226 227 226 226 226 224 225 229 230 224 219
319 313 300 294 291 289 287 289 298 308 309 300 289 279 271 265 257 252 251 249 249 250 252 255 259 259 260 261 262 262 261 261 260 260 260 259 258 257 256 254 251 248 247 246 246 244 244 245 245 245 242 234 229 228 229 227 225 226 226 223 223 225 223 220 220 222 223 223 224 227 227 225 224 225 226 227 229 229 229 227 225 228 230 227 222
316 313 302 292 287 286 287 290 294 299 301 296 288 281 272 261 256 256 256 255 255 254 253 254 255 257 259 263 264 262 260 259 257 256 256 255 255 254 254 253 250 248 247 245 245 245 244 245 247 248 245 239 233 228 227 226 225 227 227 224 224 226 225 222 221 223 223 223 224 227 228 226 225 226 226 226 228 230 232 230 227 226 227 227 225
312 313 313 303 291 287 287 288 288 289 291 289 286 283 277 268 260 258 257 256 255 254 252 252 253 255 257 261 264 262 259 256 254 252 251 250 249 247 247 247 246 246 246 245 244 243 243 244 246 248 245 241 236 231 228 228 226 226 226 224 224 227 227 223 222 222 223 224 224 226 228 228 227 227 227 226 227 228 232 233 230 227 226 226 226
306 310 316 312 297 290 290 291 292 291 290 288 286 284 283 280 275 270 265 260 256 254 251 249 249 250 251 254 259 260 258 254 251 249 247 245 243 241 240 240 240 242 243 244 244 243 242 243 245 246 245 242 238 234 232 231 229 227 227 226 226 227 229 227 223 221 222 223 222 223 226 227 227 227 227 227 227 228 230 232 232 230 228 228 228
300 306 309 310 306 302 303 305 306 304 300 296 292 288 284 282 280 277 273 269 264 260 256 253 250 248 247 248 251 254 255 253 250 249 247 244 241 237 237 237 237 238 240 243 244 243 241 241 243 244 244 244 238 234 235 234 231 229 227 228 229 227 226 226 224 223 223 223 221 222 224 224 224 226 227 227 227 227 228 230 230 230 230 231 230
300 302 303 308 312 312 314 314 314 313 312 311 307 301 294 288 282 278 275 273 271 267 263 259 256 252 249 248 248 249 251 251 250 250 249 247 243 239 237 237 237 238 239 242 243 243 241 239 241 241 241 244 239 233 236 235 232 231 228 228 231 227 224 224 224 224 224 224 223 223 224 223 221 223 226 227 227 228 229 229 230 231 231 232 232
301 300 302 307 310 312 314 314 314 315 315 314 312 309 305 300 294 289 284 279 276 273 269 265 262 259 256 253 251 249 249 250 250 251 250 250 247 243 240 238 239 238 239 242 243 244 242 240 241 241 239 242 241 240 242 238 232 230 229 230 228 225 225 224 220 220 223 224 223 223 224 224 222 223 225 225 225 229 232 233 233 233 232 233 234
300 299 302 306 309 311 313 313 314 314 314 314 313 310 307 305 303 301 297 291 284 278 273 269 266 263 259 257 254 251 249 249 251 251 251 251 250 247 245 242 240 240 239 241 243 244 243 240 241 243 242 242 244 247 250 247 240 234 233 237 231 223 225 227 222 221 223 224 223 223 224 224 224 224 225 225 226 230 234 235 236 235 234 233 234
300 300 303 306 309 310 311 313 314 314 314 315 315 312 310 308 307 305 302 297 291 283 276 272 267 264 260 256 254 252 250 249 251 252 252 252 251 249 248 245 242 241 240 241 242 243 243 242 241 242 242 242 245 250 253 252 247 242 240 240 229 218 222 227 226 223 223 225 224 224 225 225 225 226 227 228 229 231 234 236 237 237 235 233 234
303 305 307 309 310 311 312 314 314 314 316 318 319 316 313 311 308 305 302 298 293 286 279 274 270 266 261 256 251 250 248 248 249 251 251 252 251 250 249 248 245 243 242 243 244 244 244 244 242 241 241 241 243 249 253 253 247 241 240 237 227 218 219 221 224 225 224 224 224 224 224 225 226 227 229 231 232 233 234 235 238 238 235 233 234
310 312 311 312 313 314 314 315 317 319 321 322 321 319 316 314 312 309 305 302 298 291 284 278 272 266 262 257 251 247 245 244 244 246 248 250 251 250 249 249 248 246 245 244 246 246 246 246 245 243 243 243 244 248 253 255 248 239 237 237 233 233 230 222 222 226 225 224 223 223 224 225 227 229 230 232 232 232 233 234 237 238 236 235 235
314 313 312 313 315 316 317 319 322 323 323 322 323 323 321 320 319 316 313 309 304 297 290 283 274 267 261 256 251 247 244 241 240 241 243 246 249 250 249 249 249 247 246 246 246 247 247 247 247 247 247 247 247 250 255 259 254 241 237 238 238 241 241 236 230 228 225 223 223 223 224 224 226 227 228 230 232 231 232 234 236 237 236 235 235
314 314 314 315 316 317 319 322 323 322 322 324 326 327 328 329 328 325 323 318 311 305 299 291 280 270 262 255 251 249 245 242 240 239 238 240 243 247 247 247 247 246 245 245 246 247 248 248 248 249 249 249 248 251 255 261 260 247 237 235 237 239 242 242 239 232 224 220 221 223 225 226 227 227 228 230 232 231 230 230 231 234 236 236 236
317 317 315 315 317 319 321 323 322 321 323 326 328 330 333 335 333 333 332 327 322 320 314 303 289 277 266 257 252 251 247 243 242 240 239 238 239 242 243 243 244 245 244 244 245 247 248 248 249 249 249 250 249 250 254 259 263 253 239 232 231 234 237 239 239 235 226 219 218 221 225 226 227 228 230 233 233 231 228 226 229 236 240 241 239
321 318 315 315 317 320 322 322 322 323 325 327 329 332 336 338 337 337 335 331 333 334 328 317 304 288 273 261 254 251 249 246 244 243 242 240 239 239 240 240 241 242 243 243 243 246 248 248 249 249 249 249 249 250 251 255 259 255 241 230 225 229 236 238 236 235 231 225 221 222 226 228 229 229 230 232 233 232 230 230 235 241 244 244 242
317 315 313 314 316 319 322 322 323 325 326 326 330 335 338 339 342 340 334 332 337 338 332 326 316 301 285 272 262 256 252 250 248 247 245 243 241 239 239 239 239 240 241 242 242 243 246 248 249 249 249 249 249 249 249 250 254 254 243 230 222 224 233 237 236 235 233 229 227 227 228 229 231 232 231 231 232 233 233 234 237 242 245 244 241
311 311 311 311 313 319 322 323 326 327 327 326 331 337 338 339 344 344 337 336 339 338 335 332 324 311 296 281 270 263 257 252 250 248 246 244 243 241 241 241 240 240 241 242 243 242 244 246 248 249 249 250 250 249 248 248 250 252 245 232 224 225 230 232 233 235 235 232 230 229 230 230 231 232 232 232 233 234 235 236 238 241 242 239 238
310 309 307 307 313 319 322 325 328 328 326 326 330 336 336 338 343 345 341 342 343 338 336 333 327 320 309 294 280 268 260 253 249 247 246 245 245 245 245 245 244 243 242 243 244 243 243 245 248 249 249 250 250 249 248 246 246 248 247 237 227 227 230 229 228 231 235 236 233 231 231 231 231 233 233 232 233 235 236 236 237 236 234 233 237
310 307 305 308 314 318 321 326 328 327 326 325 328 333 334 336 341 342 342 345 345 341 338 334 328 322 315 305 294 282 271 262 256 253 251 250 251 251 252 252 250 248 247 247 246 244 243 244 246 249 249 250 250 250 248 245 243 245 249 244 234 230 230 230 230 231 231 234 236 233 232 231 231 233 234 233 233 234 232 230 229 228 229 234 238
309 307 309 314 316 316 320 324 327 327 328 326 325 328 331 333 336 340 342 345 346 344 342 338 333 327 319 310 299 289 280 273 266 262 259 257 256 257 257 257 257 255 253 252 251 249 246 244 245 248 249 249 250 250 248 244 241 241 246 249 244 237 233 231 232 234 232 230 233 232 231 231 229 230 232 233 234 234 230 227 226 228 232 236 237
312 311 315 317 315 314 318 323 325 328 330 327 322 322 327 330 334 338 340 342 344 345 344 342 338 334 328 319 307 295 284 276 270 266 262 260 260 259 259 259 260 259 258 256 255 254 250 246 245 246 248 249 249 249 248 243 239 238 242 248 250 246 240 235 233 235 234 232 231 228 227 229 229 229 229 230 232 234 234 232 233 235 237 238 237
316 316 315 312 309 310 315 320 324 328 331 329 320 318 321 326 332 336 337 337 339 342 343 342 339 337 334 331 323 311 297 284 274 267 263 260 259 258 258 259 260 260 259 258 257 256 253 248 244 244 245 247 247 247 246 241 237 236 238 246 252 251 246 241 237 237 237 235 234 231 227 225 227 229 230 229 230 233 234 234 235 236 237 237 239
315 314 310 307 307 310 315 320 322 325 331 331 323 318 318 320 327 334 334 333 335 337 338 337 336 337 338 340 340 334 323 309 292 277 267 261 257 256 255 255 257 258 258 258 258 257 255 250 245 243 244 245 246 245 243 238 234 233 236 244 254 256 253 247 242 240 240 238 237 236 232 228 228 230 232 232 232 233 235 236 237 237 237 238 241
310 311 311 311 311 313 315 318 318 321 329 334 328 321 317 317 323 329 329 328 329 331 332 332 334 337 341 347 351 351 349 342 326 303 281 266 255 251 250 249 250 253 255 256 257 257 256 251 247 244 244 245 245 243 239 233 228 227 232 242 253 258 258 254 247 241 240 239 239 239 236 232 230 231 233 235 235 236 237 239 240 241 241 240 240
309 312 314 312 311 312 313 313 313 317 326 333 332 326 321 321 323 324 325 325 324 327 331 332 334 339 343 351 359 0 1 2 356 341 314 278 250 240 238 236 235 242 249 254 257 260 259 253 248 247 246 245 242 238 233 227 222 222 227 238 249 255 258 257 252 245 240 239 239 239 239 236 233 231 233 236 238 238 239 241 242 244 243 241 240
308 310 312 310 307 308 307 306 309 314 321 327 331 333 333 331 329 327 327 326 325 328 332 333 334 340 343 350 2 6 3 5 7 4 356 338 278 232 218 208 212 230 246 253 260 266 266 260 252 249 247 241 234 229 224 220 218 219 224 233 243 250 254 256 253 248 243 240 239 240 240 240 239 237 236 238 239 239 239 240 242 243 245 244 243
305 306 308 308 305 303 302 302 304 308 314 320 326 333 336 336 334 334 336 335 330 331 335 335 333 338 343 348 360 7 7 6 7 7 10 15 16 345 237 209 219 239 256 268 273 273 270 266 259 251 243 232 223 218 216 214 215 218 224 231 238 244 249 251 250 247 243 240 238 238 239 241 242 241 239 239 241 242 241 241 241 241 243 245 246
302 303 306 307 304 299 297 295 294 299 304 309 315 323 330 334 337 339 341 342 338 336 340 342 338 335 339 345 354 3 10 13 13 10 10 15 19 16 5 339 286 275 277 279 276 271 268 268 265 250 231 219 213 210 209 210 212 216 223 230 235 240 243 245 245 243 242 240 237 236 235 237 239 239 239 239 241 243 244 244 243 242 241 241 242
301 300 302 304 301 294 289 287 287 290 293 296 304 315 323 327 333 336 339 343 345 344 348 351 349 341 335 339 348 356 5 16 20 19 16 15 17 15 8 4 3 347 324 305 293 296 296 276 247 232 218 209 204 202 202 204 208 214 220 225 229 232 235 238 239 239 238 239 238 237 235 234 234 235 235 236 238 241 244 245 246 246 244 242 241
303 299 298 300 298 291 285 283 281 280 282 288 298 309 315 319 324 328 334 342 347 349 353 357 0 359 348 335 340 350 357 8 19 24 24 21 19 17 9 5 9 6 356 341 323 323 326 245 198 194 200 201 197 194 195 197 202 209 216 221 224 225 226 229 233 235 234 235 236 238 238 236 235 234 233 234 235 237 240 242 243 244 245 245 244
305 301 298 298 297 292 286 281 278 275 277 285 295 302 307 311 316 320 329 340 345 348 353 359 5 9 7 358 346 347 355 4 12 20 22 22 23 25 24 19 8 354 345 337 324 318 312 280 199 172 174 184 188 188 187 190 196 204 214 220 223 224 225 225 228 232 234 234 234 236 238 239 239 239 238 238 238 238 240 241 242 243 244 245 247
302 302 299 299 299 296 289 283 280 279 279 284 291 295 299 304 308 314 324 334 339 344 350 358 3 10 13 12 4 354 352 360 8 14 16 16 19 25 31 33 29 18 7 353 338 329 322 312 286 164 158 165 177 184 181 179 184 192 202 211 217 220 223 226 228 231 234 237 238 238 239 241 242 243 244 245 247 248 250 251 252 253 253 253 254
295 299 300 300 298 296 293 288 284 282 281 282 286 289 292 296 302 310 319 326 331 336 343 350 358 7 13 15 14 9 359 349 351 360 5 8 11 17 23 30 35 35 33 31 28 27 22 20 29 52 92 149 180 195 195 193 192 192 194 201 208 214 219 223 227 231 235 240 243 244 246 247 248 249 250 251 252 254 256 258 260 260 260 261 260
285 289 294 297 295 292 290 287 283 280 279 278 279 281 284 288 294 303 311 316 320 327 333 339 348 359 7 12 16 16 10 357 342 332 334 345 358 7 13 20 28 33 35 36 39 44 45 47 51 57 62 69 78 101 206 220 228 232 233 232 230 230 229 229 231 234 237 240 243 246 248 249 251 252 253 253 253 254 254 255 256 257 257 258 258
278 280 284 289 289 285 283 282 279 275 273 271 271 272 274 277 283 293 302 306 310 316 322 327 333 344 356 4 10 15 16 11 360 344 324 315 320 333 350 6 17 22 26 31 35 39 43 46 48 51 53 57 61 63 65 68 105 228 243 248 249 248 246 243 241 240 242 243 245 247 249 251 252 253 254 254 254 255 255 254 254 255 255 255 256
277 276 277 280 282 280 277 277 275 272 268 266 264 264 265 269 275 284 292 295 298 303 310 314 319 328 339 350 358 5 11 15 13 8 355 332 314 307 309 316 333 357 11 20 25 26 27 30 33 35 38 40 42 46 50 51 50 51 253 243 247 248 248 246 244 242 241 242 243 244 246 248 249 251 252 253 254 255 255 256 256 256 257 257 257
280 274 272 274 277 277 275 274 273 271 267 265 263 262 263 266 270 274 279 283 287 292 298 302 307 313 320 330 341 349 356 4 10 13 13 6 349 328 311 303 297 298 309 328 352 2 2 360 2 360 358 354 347 335 319 303 285 271 260 252 247 248 247 247 246 245 243 242 241 241 242 244 245 246 248 249 250 252 253 254 255 255 256 257 258
Height
5790 5789 5788 5787 5787 5786 5785 5784 5783 5782 5783 5784 5784 5784 5783 5783 5782 5781 5781 5782 5782 5781 5781 5782 5782 5782 5783 5783 5783 5784 5784 5785 5785 5786 5787 5788 5789 5790 5791 5793 5793 5794 5795 5795 5796 5797 5799 5801 5803 5804 5805 5806 5808 5809 5811 5812 5814 5815 5817 5818 5819 5822 5824 5824 5826 5828 5829 5832 5833 5835 5837 5837 5836 5836 5838 5840 5840 5840 5840 5843 5845 5844 5844 5844 5844
5788 5787 5786 5785 5784 5783 5782 5782 5780 5779 5780 5780 5780 5780 5780 5780 5780 5779 5779 5779 5780 5780 5779 5780 5780 5780 5780 5780 5781 5781 5782 5782 5783 5784 5785 5786 5787 5788 5789 5790 5791 5792 5792 5792 5793 5794 5795 5797 5800 5800 5800 5802 5804 5806 5808 5810 5812 5813 5815 5816 5816 5818 5820 5822 5825 5826 5828 5830 5831 5834 5835 5835 5834 5836 5838 5839 5840 5839 5838 5841 5844 5843 5843 5843 5843
5786 5785 5784 5782 5781 5780 5779 5778 5777 5776 5776 5777 5777 5776 5776 5776 5776 5776 5776 5777 5777 5777 5777 5778 5778 5778 5778 5778 5778 5779 5779 5780 5780 5781 5783 5784 5785 5786 5787 5788 5788 5789 5789 5790 5790 5791 5792 5794 5796 5796 5797 5800 5802 5804 5806 5808 5809 5811 5813 5814 5815 5817 5819 5821 5822 5824 5826 5828 5830 5833 5833 5833 5833 5835 5837 5838 5839 5838 5836 5838 5842 5843 5842 5842 5842
5783 5782 5781 5779 5778 5777 5776 5775 5774 5773 5773 5773 5773 5773 5773 5773 5773 5773 5773 5773 5774 5775 5775 5775 5775 5776 5775 5775 5776 5776 5777 5778 5778 5779 5780 5781 5782 5783 5784 5785 5785 5786 5786 5787 5787 5788 5789 5791 5792 5793 5795 5797 5799 5801 5803 5805 5807 5808 5810 5813 5814 5816 5817 5818 5820 5822 5824 5827 5829 5831 5832 5832 5833 5834 5835 5836 5837 5837 5835 5837 5841 5842 5840 5840 5841
5781 5780 5779 5777 5776 5774 5773 5772 5772 5771 5770 5770 5769 5769 5769 5770 5770 5771 5771 5771 5771 5772 5772 5773 5773 5773 5773 5773 5773 5774 5774 5775 5776 5777 5778 5779 5780 5780 5781 5782 5782 5783 5783 5784 5784 5785 5786 5788 5789 5790 5792 5793 5795 5798 5800 5802 5804 5806 5808 5810 5812 5814 5815 5817 5818 5820 5822 5824 5827 5829 5830 5830 5831 5833 5834 5834 5835 5835 5834 5836 5839 5840 5839 5839 5840
5779 5778 5777 5776 5774 5772 5771 5771 5769 5768 5768 5767 5767 5767 5767 5767 5768 5768 5768 5768 5768 5769 5770 5770 5770 5771 5771 5771 5771 5771 5772 5773 5774 5775 5776 5777 5777 5778 5778 5778 5779 5780 5780 5781 5781 5782 5783 5784 5786 5787 5789 5790 5791 5793 5795 5798 5801 5804 5805 5807 5810 5812 5813 5815 5817 5819 5820 5821 5824 5827 5828 5829 5830 5831 5832 5832 5833 5833 5834 5835 5836 5837 5837 5838 5839
5778 5777 5776 5775 5773 5772 5770 5769 5767 5766 5766 5765 5765 5764 5764 5764 5765 5765 5766 5766 5766 5767 5767 5767 5768 5768 5768 5769 5769 5769 5769 5770 5771 5772 5773 5774 5775 5775 5775 5776 5776 5777 5778 5778 5779 5779 5780 5781 5782 5783 5785 5786 5788 5790 5792 5795 5798 5801 5803 5805 5807 5809 5811 5813 5814 5816 5818 5820 5822 5824 5826 5827 5829 5829 5830 5831 5831 5832 5833 5833 5834 5834 5835 5836 5837
5777 5777 5776 5774 5773 5771 5769 5767 5765 5764 5764 5763 5763 5762 5762 5762 5763 5763 5763 5764 5764 5764 5765 5765 5765 5765 5766 5766 5766 5766 5767 5767 5768 5769 5770 5771 5772 5772 5772 5773 5773 5774 5775 5775 5776 5777 5777 5778 5779 5780 5782 5783 5785 5788 5790 5792 5795 5798 5800 5802 5804 5806 5808 5810 5811 5813 5816 5818 5820 5822 5824 5826 5827 5827 5828 5829 5830 5830 5831 5832 5832 5833 5834 5835 5836
5775 5775 5774 5773 5771 5769 5767 5765 5764 5763 5763 5761 5760 5760 5759 5760 5761 5761 5761 5761 5762 5762 5763 5763 5763 5763 5763 5763 5764 5764 5764 5765 5766 5766 5767 5768 5769 5769 5770 5770 5771 5771 5772 5773 5773 5774 5775 5775 5776 5778 5779 5780 5782 5785 5788 5790 5792 5795 5797 5800 5802 5803 5805 5806 5808 5811 5813 5814 5817 5820 5822 5824 5825 5825 5826 5827 5828 5829 5830 5831 5831 5832 5832 5834 5835
5774 5773 5772 5771 5770 5767 5765 5764 5763 5762 5761 5759 5759 5758 5758 5758 5758 5758 5759 5759 5760 5760 5760 5760 5760 5760 5760 5761 5761 5761 5762 5762 5763 5764 5764 5765 5766 5766 5767 5768 5768 5769 5769 5770 5770 5771 5772 5773 5774 5775 5777 5778 5779 5781 5784 5786 5789 5791 5794 5796 5799 5800 5802 5803 5805 5808 5810 5812 5815 5818 5820 5822 5823 5824 5825 5826 5827 5828 5829 5830 5831 5831 5832 5833 5834
5772 5771 5770 5769 5767 5765 5764 5763 5762 5760 5759 5758 5757 5757 5756 5756 5756 5757 5757 5757 5757 5758 5758 5758 5758 5758 5758 5758 5759 5759 5759 5760 5760 5761 5761 5762 5763 5764 5765 5765 5766 5766 5767 5767 5768 5768 5769 5770 5771 5772 5774 5775 5775 5777 5780 5782 5784 5786 5788 5792 5795 5797 5799 5801 5803 5805 5807 5810 5813 5815 5817 5819 5820 5821 5823 5824 5825 5827 5828 5829 5830 5831 5831 5832 5832
5770 5769 5767 5767 5766 5764 5763 5761 5760 5759 5758 5757 5756 5755 5754 5754 5755 5755 5755 5755 5755 5756 5756 5756 5756 5756 5756 5756 5756 5757 5757 5757 5758 5758 5759 5760 5761 5761 5762 5762 5763 5764 5764 5764 5765 5765 5766 5767 5768 5769 5770 5772 5772 5773 5775 5778 5779 5781 5783 5787 5791 5794 5796 5798 5800 5803 5805 5808 5810 5813 5814 5816 5817 5820 5821 5822 5823 5825 5826 5828 5829 5830 5831 5831 5831
5768 5767 5766 5765 5764 5762 5761 5759 5758 5757 5756 5755 5754 5753 5753 5753 5754 5754 5754 5754 5754 5754 5754 5754 5754 5754 5754 5754 5754 5754 5755 5755 5755 5755 5756 5757 5758 5758 5759 5759 5760 5761 5761 5762 5762 5763 5764 5764 5764 5765 5767 5769 5770 5770 5771 5773 5776 5778 5781 5783 5786 5790 5793 5795 5797 5800 5802 5804 5807 5809 5811 5813 5815 5817 5819 5820 5821 5822 5824 5825 5827 5829 5829 5830 5830
5766 5765 5764 5763 5762 5761 5759 5758 5757 5755 5754 5753 5752 5752 5752 5752 5752 5752 5752 5752 5752 5752 5752 5752 5752 5752 5752 5752 5752 5752 5752 5753 5753 5753 5753 5754 5755 5755 5756 5756 5757 5757 5758 5759 5760 5760 5761 5761 5761 5762 5763 5765 5766 5767 5768 5771 5773 5775 5777 5779 5782 5785 5788 5791 5794 5795 5798 5801 5803 5806 5808 5810 5812 5814 5816 5817 5819 5820 5821 5822 5824 5827 5828 5829 5828
5765 5764 5762 5761 5760 5759 5757 5756 5755 5754 5753 5752 5751 5751 5751 5751 5751 5750 5750 5750 5750 5750 5750 5750 5750 5750 5750 5750 5750 5750 5750 5750 5750 5750 5751 5751 5752 5753 5753 5753 5754 5754 5755 5756 5757 5758 5758 5759 5759 5759 5761 5762 5763 5764 5766 5768 5770 5771 5772 5774 5778 5781 5784 5787 5790 5792 5795 5798 5800 5802 5804 5807 5809 5811 5813 5814 5816 5817 5818 5819 5821 5824 5826 5827 5827
5763 5762 5761 5760 5759 5757 5755 5754 5754 5753 5753 5751 5750 5749 5749 5749 5749 5748 5748 5748 5748 5748 5748 5748 5748 5748 5748 5748 5748 5748 5748 5748 5748 5747 5748 5749 5749 5750 5750 5750 5751 5752 5752 5753 5753 5754 5755 5756 5757 5758 5759 5759 5760 5761 5763 5765 5767 5768 5770 5772 5775 5777 5780 5783 5786 5789 5792 5795 5797 5799 5801 5803 5805 5807 5809 5810 5812 5814 5816 5817 5819 5820 5822 5824 5825
5762 5760 5760 5759 5757 5755 5754 5753 5752 5752 5751 5750 5749 5748 5747 5747 5746 5746 5746 5746 5745 5745 5745 5745 5745 5745 5746 5745 5745 5745 5745 5745 5745 5745 5745 5746 5746 5747 5747 5747 5748 5749 5749 5750 5750 5751 5752 5753 5754 5755 5756 5757 5758 5759 5760 5762 5764 5766 5767 5770 5772 5774 5776 5779 5782 5785 5788 5791 5793 5795 5797 5800 5802 5803 5805 5807 5809 5811 5813 5815 5817 5818 5819 5821 5823
5760 5758 5757 5757 5755 5754 5752 5751 5750 5750 5749 5748 5747 5746 5745 5744 5744 5743 5743 5742 5742 5742 5741 5741 5741 5742 5742 5742 5743 5742 5742 5742 5742 5742 5742 5743 5743 5744 5744 5745 5745 5746 5746 5747 5747 5748 5749 5750 5751 5752 5754 5755 5755 5756 5757 5758 5760 5762 5764 5767 5769 5771 5773 5775 5778 5781 5784 5787 5790 5792 5794 5796 5798 5800 5802 5803 5806 5808 5810 5812 5814 5815 5817 5819 5821
5758 5757 5756 5754 5753 5752 5750 5749 5749 5748 5746 5745 5745 5743 5742 5742 5741 5741 5740 5739 5739 5738 5738 5738 5738 5738 5739 5739 5739 5739 5739 5739 5739 5739 5739 5740 5740 5741 5741 5742 5742 5743 5743 5744 5744 5745 5746 5747 5748 5749 5751 5752 5753 5754 5754 5754 5756 5759 5761 5763 5765 5767 5769 5771 5774 5776 5780 5783 5786 5788 5790 5792 5795 5797 5799 5800 5802 5804 5807 5809 5811 5813 5815 5817 5818
5757 5755 5754 5752 5751 5749 5748 5747 5746 5745 5744 5742 5741 5740 5739 5739 5738 5737 5736 5736 5735 5734 5734 5734 5734 5734 5735 5735 5735 5736 5736 5736 5736 5736 5737 5737 5737 5738 5738 5739 5739 5740 5740 5741 5741 5742 5743 5743 5744 5746 5748 5749 5750 5751 5750 5750 5753 5755 5757 5759 5761 5763 5765 5767 5769 5772 5775 5778 5781 5784 5785 5788 5792 5794 5796 5797 5799 5801 5803 5806 5808 5810 5812 5814 5815
5755 5753 5752 5750 5749 5747 5746 5745 5744 5742 5741 5740 5738 5737 5736 5734 5734 5733 5732 5731 5731 5729 5729 5729 5729 5729 5730 5731 5731 5731 5732 5733 5733 5733 5733 5734 5734 5734 5735 5736 5736 5737 5737 5737 5738 5739 5740 5740 5741 5742 5744 5746 5747 5747 5746 5746 5749 5751 5753 5755 5757 5759 5761 5762 5764 5766 5769 5773 5776 5779 5781 5784 5788 5790 5792 5794 5796 5798 5800 5802 5804 5806 5808 5810 5812
5752 5751 5750 5748 5747 5745 5744 5743 5741 5740 5739 5738 5736 5734 5732 5730 5729 5728 5728 5727 5726 5725 5724 5723 5724 5724 5725 5726 5727 5727 5728 5729 5729 5730 5730 5731 5731 5731 5732 5733 5733 5733 5734 5734 5735 5736 5737 5738 5738 5739 5740 5742 5743 5743 5743 5743 5744 5746 5748 5751 5753 5755 5756 5758 5760 5762 5765 5768 5771 5774 5776 5779 5783 5786 5788 5790 5793 5795 5797 5798 5800 5802 5804 5807 5808
5750 5749 5747 5746 5745 5743 5742 5741 5739 5738 5736 5735 5733 5731 5729 5727 5726 5724 5723 5722 5721 5720 5719 5718 5718 5719 5719 5721 5722 5722 5724 5725 5725 5726 5726 5727 5728 5728 5729 5729 5730 5730 5731 5732 5732 5733 5734 5735 5736 5736 5737 5738 5739 5739 5740 5740 5740 5742 5744 5747 5749 5750 5752 5754 5756 5758 5761 5764 5767 5769 5772 5775 5778 5781 5784 5786 5789 5791 5792 5794 5796 5799 5801 5803 5804
5747 5746 5745 5744 5742 5741 5740 5738 5737 5736 5734 5732 5730 5728 5726 5724 5722 5721 5719 5718 5717 5716 5714 5714 5714 5714 5714 5715 5716 5717 5719 5720 5721 5722 5722 5723 5724 5725 5725 5726 5727 5728 5728 5729 5729 5730 5731 5732 5733 5733 5733 5734 5735 5736 5736 5736 5736 5738 5740 5743 5745 5746 5747 5750 5752 5755 5757 5759 5762 5765 5768 5771 5774 5777 5779 5782 5785 5787 5788 5790 5793 5795 5797 5798 5799
5745 5744 5743 5741 5740 5739 5737 5736 5734 5733 5731 5729 5727 5725 5723 5721 5720 5718 5716 5714 5712 5711 5710 5710 5710 5709 5710 5711 5712 5713 5714 5716 5717 5718 5718 5719 5720 5721 5722 5723 5724 5725 5725 5726 5727 5728 5729 5729 5730 5730 5730 5731 5732 5732 5732 5732 5733 5734 5736 5739 5740 5742 5744 5746 5748 5750 5753 5755 5758 5760 5763 5766 5769 5772 5775 5777 5780 5782 5784 5786 5788 5790 5793 5795 5796
5744 5742 5741 5739 5738 5736 5735 5733 5732 5730 5728 5726 5725 5723 5721 5719 5717 5715 5713 5711 5709 5708 5707 5707 5706 5706 5706 5707 5708 5709 5710 5712 5713 5713 5714 5715 5716 5717 5719 5720 5721 5722 5722 5723 5724 5724 5725 5726 5726 5727 5727 5728 5728 5729 5729 5729 5730 5731 5732 5734 5736 5738 5740 5743 5745 5746 5748 5751 5754 5756 5758 5761 5765 5768 5771 5773 5775 5777 5780 5781 5783 5786 5789 5792 5794
5742 5741 5739 5738 5737 5735 5733 5732 5730 5728 5726 5724 5723 5721 5719 5718 5716 5713 5711 5710 5707 5706 5705 5704 5703 5703 5703 5704 5705 5706 5707 5708 5709 5710 5711 5712 5713 5714 5715 5716 5717 5718 5719 5720 5720 5721 5722 5723 5723 5724 5724 5725 5725 5725 5726 5726 5727 5728 5729 5730 5732 5734 5736 5739 5742 5743 5745 5747 5750 5752 5755 5758 5761 5764 5767 5769 5771 5773 5775 5777 5779 5782 5785 5788 5790
5740 5739 5738 5737 5735 5733 5732 5730 5728 5727 5725 5723 5721 5720 5718 5716 5714 5712 5710 5708 5706 5705 5703 5702 5701 5701 5701 5701 5702 5703 5704 5705 5706 5706 5707 5708 5709 5710 5711 5712 5713 5714 5715 5716 5717 5718 5719 5719 5720 5721 5721 5722 5722 5722 5723 5723 5724 5725 5726 5727 5729 5731 5733 5735 5738 5740 5741 5743 5746 5748 5751 5754 5757 5760 5763 5765 5768 5769 5771 5773 5776 5778 5781 5783 5785
5739 5737 5736 5735 5733 5732 5730 5728 5727 5725 5723 5721 5720 5719 5717 5715 5713 5711 5709 5707 5705 5704 5703 5702 5701 5700 5700 5700 5701 5701 5702 5703 5703 5704 5704 5705 5706 5707 5708 5709 5710 5711 5712 5713 5714 5715 5715 5716 5717 5718 5718 5719 5719 5719 5720 5721 5721 5722 5723 5724 5726 5729 5730 5732 5734 5737 5738 5740 5743 5745 5747 5750 5752 5755 5758 5760 5763 5765 5767 5770 5772 5774 5776 5778 5779
5736 5735 5733 5732 5731 5730 5728 5727 5725 5723 5722 5720 5719 5717 5716 5714 5712 5710 5708 5706 5705 5703 5702 5701 5700 5700 5699 5699 5699 5699 5700 5701 5701 5701 5702 5702 5703 5704 5705 5706 5707 5708 5709 5710 5711 5712 5712 5713 5714 5714 5715 5716 5716 5716 5717 5718 5719 5719 5720 5722 5724 5726 5727 5728 5730 5733 5735 5737 5739 5741 5744 5746 5748 5751 5753 5755 5757 5760 5763 5765 5767 5769 5770 5772 5774
5734 5732 5731 5730 5729 5728 5727 5725 5724 5722 5720 5719 5717 5716 5714 5713 5711 5709 5707 5706 5705 5703 5702 5701 5700 5699 5698 5698 5698 5698 5698 5699 5699 5699 5700 5700 5700 5701 5702 5702 5703 5705 5706 5706 5707 5708 5709 5710 5710 5711 5712 5712 5713 5713 5714 5715 5716 5717 5718 5719 5721 5722 5724 5725 5727 5729 5731 5733 5735 5737 5739 5741 5744 5746 5748 5750 5752 5755 5757 5760 5762 5764 5765 5767 5770
5732 5731 5729 5728 5727 5726 5725 5724 5722 5720 5719 5718 5716 5715 5714 5712 5710 5709 5707 5706 5704 5703 5701 5700 5699 5698 5698 5697 5697 5696 5696 5697 5697 5697 5697 5698 5698 5698 5699 5700 5701 5701 5702 5703 5704 5705 5706 5707 5707 5708 5708 5709 5709 5710 5711 5712 5713 5714 5714 5716 5717 5719 5721 5722 5724 5726 5728 5729 5731 5733 5735 5737 5739 5741 5744 5746 5748 5751 5753 5754 5756 5759 5761 5763 5765
5730 5729 5728 5727 5726 5725 5724 5722 5721 5719 5718 5717 5715 5714 5713 5711 5710 5708 5706 5705 5704 5702 5701 5700 5698 5697 5696 5696 5695 5695 5695 5695 5695 5695 5695 5696 5696 5696 5696 5697 5698 5699 5700 5700 5701 5702 5703 5703 5704 5704 5705 5706 5706 5707 5707 5708 5709 5711 5711 5712 5714 5716 5717 5719 5721 5723 5725 5726 5727 5729 5731 5733 5736 5738 5740 5742 5745 5746 5748 5750 5751 5754 5755 5757 5760
5728 5727 5726 5725 5724 5723 5722 5721 5719 5718 5716 5715 5714 5713 5712 5711 5709 5708 5706 5704 5703 5702 5700 5699 5698 5696 5695 5694 5693 5693 5693 5693 5693 5693 5693 5693 5694 5694 5694 5694 5695 5696 5697 5697 5698 5699 5700 5700 5701 5701 5702 5702 5703 5703 5704 5705 5706 5707 5708 5709 5710 5712 5714 5716 5718 5720 5722 5723 5724 5725 5727 5729 5731 5734 5736 5738 5741 5742 5744 5746 5747 5749 5751 5753 5756
5726 5725 5724 5723 5722 5721 5720 5719 5718 5716 5715 5714 5713 5712 5711 5710 5709 5707 5705 5704 5703 5701 5700 5699 5697 5696 5694 5693 5692 5691 5691 5690 5690 5690 5691 5691 5691 5691 5692 5692 5692 5693 5693 5694 5695 5695 5696 5697 5697 5698 5698 5699 5700 5700 5701 5701 5702 5704 5705 5706 5707 5708 5710 5712 5714 5716 5717 5718 5720 5721 5722 5724 5726 5729 5731 5734 5736 5738 5740 5742 5744 5745 5747 5749 5750
5724 5723 5722 5721 5720 5719 5718 5717 5716 5715 5714 5713 5712 5711 5710 5709 5708 5706 5705 5703 5702 5701 5700 5698 5697 5695 5694 5692 5691 5689 5689 5688 5688 5688 5688 5688 5688 5689 5689 5689 5689 5690 5690 5691 5691 5692 5692 5693 5694 5695 5695 5696 5696 5697 5697 5698 5699 5701 5702 5704 5704 5705 5706 5708 5709 5711 5712 5714 5715 5716 5717 5719 5722 5723 5726 5729 5731 5733 5735 5737 5738 5740 5742 5743 5745
5722 5721 5720 5720 5719 5717 5716 5715 5715 5714 5713 5712 5710 5710 5709 5708 5707 5706 5704 5703 5701 5700 5699 5698 5696 5695 5693 5691 5690 5688 5687 5686 5685 5685 5685 5685 5686 5686 5686 5687 5687 5687 5688 5688 5688 5688 5689 5690 5691 5692 5692 5693 5693 5694 5694 5695 5696 5698 5700 5701 5702 5702 5703 5704 5705 5706 5708 5710 5711 5712 5713 5715 5718 5719 5722 5724 5726 5728 5730 5731 5732 5734 5736 5738 5740
5720 5719 5718 5717 5716 5716 5715 5714 5713 5713 5712 5711 5709 5709 5708 5707 5706 5704 5703 5702 5701 5699 5698 5697 5695 5694 5692 5691 5689 5688 5686 5685 5684 5684 5683 5683 5683 5684 5684 5685 5685 5685 5685 5685 5686 5686 5686 5687 5687 5688 5689 5689 5690 5690 5691 5692 5694 5696 5698 5699 5699 5699 5699 5700 5701 5702 5703 5705 5706 5708 5710 5712 5714 5716 5718 5720 5721 5723 5724 5726 5727 5729 5731 5733 5735
5718 5717 5716 5715 5714 5714 5713 5712 5712 5711 5711 5710 5709 5708 5707 5706 5704 5703 5702 5701 5700 5698 5697 5696 5694 5693 5691 5690 5689 5687 5686 5685 5684 5683 5682 5682 5682 5682 5683 5683 5684 5684 5683 5684 5684 5684 5683 5684 5685 5685 5685 5686 5686 5687 5688 5689 5691 5693 5696 5697 5696 5696 5696 5697 5697 5698 5699 5700 5702 5704 5706 5708 5710 5712 5714 5716 5717 5718 5719 5721 5722 5724 5725 5727 5730
5717 5715 5715 5714 5713 5713 5712 5711 5710 5710 5709 5708 5708 5707 5705 5704 5703 5702 5701 5700 5698 5697 5696 5695 5693 5692 5691 5689 5688 5687 5686 5685 5684 5683 5682 5682 5682 5682 5682 5682 5683 5682 5682 5682 5682 5682 5681 5682 5682 5682 5682 5683 5684 5684 5686 5687 5689 5691 5693 5694 5694 5694 5694 5694 5694 5695 5695 5697 5698 5700 5702 5704 5706 5708 5711 5712 5713 5714 5715 5716 5717 5719 5720 5722 5724
5715 5714 5713 5712 5712 5711 5710 5710 5709 5709 5708 5707 5706 5705 5705 5704 5702 5701 5700 5699 5698 5696 5695 5694 5692 5691 5690 5689 5688 5687 5686 5685 5684 5683 5682 5682 5682 5682 5682 5682 5682 5681 5681 5681 5681 5680 5680 5680 5680 5680 5680 5681 5682 5683 5684 5686 5687 5689 5691 5692 5692 5692 5692 5693 5693 5693 5693 5694 5695 5696 5698 5700 5702 5704 5706 5707 5708 5709 5710 5711 5713 5714 5716 5717 5719
5714 5713 5712 5711 5710 5709 5709 5709 5708 5708 5707 5706 5706 5705 5704 5703 5702 5701 5700 5699 5698 5696 5694 5692 5691 5690 5689 5688 5687 5687 5686 5685 5684 5683 5682 5682 5681 5681 5681 5681 5681 5681 5680 5680 5680 5679 5679 5679 5679 5679 5679 5679 5680 5681 5683 5684 5686 5687 5688 5689 5690 5691 5691 5691 5691 5691 5691 5692 5693 5694 5695 5697 5698 5699 5701 5703 5704 5705 5706 5707 5709 5710 5711 5713 5714
5712 5711 5710 5710 5709 5708 5708 5707 5707 5706 5706 5705 5705 5704 5703 5702 5701 5700 5699 5698 5697 5695 5693 5692 5690 5689 5688 5688 5687 5686 5686 5685 5684 5683 5682 5682 5681 5681 5681 5680 5680 5680 5680 5680 5679 5679 5679 5679 5678 5678 5678 5679 5679 5681 5682 5683 5684 5685 5686 5687 5688 5689 5689 5689 5689 5689 5690 5690 5691 5692 5693 5694 5695 5696 5697 5698 5700 5701 5702 5703 5704 5706 5707 5708 5709
5710 5709 5708 5708 5708 5707 5706 5705 5705 5705 5704 5704 5703 5702 5702 5701 5700 5699 5699 5697 5696 5695 5693 5691 5690 5688 5688 5687 5687 5686 5685 5685 5684 5683 5682 5682 5681 5681 5680 5680 5680 5679 5679 5679 5679 5679 5679 5679 5678 5678 5678 5678 5679 5680 5680 5681 5682 5683 5684 5685 5686 5687 5687 5687 5687 5688 5688 5689 5689 5690 5691 5691 5692 5693 5694 5695 5696 5697 5698 5699 5700 5701 5703 5704 5705
5708 5707 5706 5706 5706 5705 5704 5703 5703 5703 5702 5702 5701 5701 5700 5700 5699 5698 5698 5697 5696 5694 5693 5691 5690 5688 5687 5686 5686 5685 5685 5684 5683 5683 5682 5682 5681 5681 5680 5680 5679 5679 5679 5679 5679 5679 5679 5678 5678 5678 5678 5678 5679 5679 5680 5681 5681 5682 5683 5684 5685 5685 5686 5686 5686 5687 5687 5688 5688 5688 5689 5690 5690 5691 5691 5692 5693 5694 5695 5696 5697 5698 5699 5700 5700
5706 5705 5704 5703 5703 5702 5702 5701 5701 5700 5700 5700 5699 5699 5699 5698 5698 5697 5696 5696 5695 5694 5692 5691 5690 5688 5687 5686 5685 5685 5684 5684 5683 5683 5682 5682 5681 5681 5680 5680 5679 5679 5679 5678 5678 5678 5678 5678 5678 5678 5678 5679 5679 5679 5680 5680 5681 5682 5682 5683 5684 5684 5685 5685 5686 5686 5686 5686 5687 5687 5688 5688 5688 5689 5690 5690 5691 5691 5692 5693 5694 5694 5695 5696 5697
5703 5703 5702 5701 5700 5700 5699 5699 5699 5698 5698 5698 5697 5697 5697 5697 5696 5696 5695 5694 5694 5693 5692 5691 5690 5688 5687 5686 5685 5684 5684 5683 5683 5682 5682 5682 5681 5681 5681 5680 5680 5679 5679 5678 5678 5678 5678 5678 5678 5678 5678 5679 5679 5679 5680 5680 5681 5681 5682 5683 5683 5684 5684 5685 5685 5685 5685 5685 5686 5686 5686 5687 5687 5688 5688 5689 5689 5690 5690 5691 5692 5692 5693 5694 5695
5700 5700 5700 5699 5698 5698 5697 5697 5697 5696 5696 5696 5695 5695 5695 5695 5695 5694 5694 5693 5693 5692 5691 5690 5689 5688 5687 5686 5685 5684 5683 5683 5682 5682 5682 5681 5681 5681 5681 5680 5680 5680 5679 5679 5678 5678 5678 5678 5678 5678 5678 5678 5678 5679 5679 5680 5680 5681 5681 5682 5682 5683 5684 5684 5685 5685 5685 5685 5685 5685 5686 5686 5686 5687 5687 5687 5688 5689 5689 5690 5690 5691 5691 5692 5692
5697 5697 5697 5697 5696 5696 5695 5695 5694 5694 5694 5694 5694 5693 5693 5693 5693 5692 5692 5692 5691 5691 5690 5690 5689 5688 5687 5686 5685 5684 5683 5683 5682 5682 5681 5681 5681 5680 5680 5680 5680 5680 5679 5679 5679 5679 5678 5678 5678 5678 5678 5678 5678 5679 5679 5679 5679 5680 5680 5681 5681 5682 5682 5683 5683 5684 5684 5684 5685 5685 5685 5685 5686 5686 5686 5686 5687 5687 5688 5688 5689 5689 5689 5690 5690
5694 5693 5693 5693 5693 5693 5693 5693 5692 5692 5692 5692 5692 5692 5691 5691 5691 5690 5690 5690 5690 5690 5689 5689 5688 5687 5686 5686 5685 5684 5683 5683 5682 5681 5681 5681 5680 5680 5680 5680 5680 5679 5679 5679 5679 5679 5679 5678 5678 5678 5678 5678 5678 5679 5679 5679 5679 5679 5680 5680 5680 5681 5681 5682 5682 5683 5683 5683 5684 5684 5684 5684 5685 5685 5685 5685 5685 5686 5686 5686 5687 5687 5687 5687 5687
5691 5690 5690 5690 5690 5690 5690 5690 5690 5689 5689 5689 5689 5689 5689 5688 5688 5688 5688 5688 5688 5688 5688 5687 5687 5686 5686 5685 5684 5684 5683 5682 5682 5681 5681 5680 5680 5680 5680 5679 5679 5679 5679 5679 5679 5679 5679 5678 5678 5678 5678 5678 5679 5679 5679 5679 5679 5679 5679 5680 5680 5680 5680 5681 5681 5681 5682 5682 5682 5682 5683 5683 5683 5683 5683 5684 5684 5684 5684 5684 5685 5685 5685 5685 5685